﻿測定場所 (Monitoring sites),日付 (Measurement date),時間 (Measurement time),線量率 最大値 (max) μGy/h,線量率 最小値 (min) μGy/h,線量率 平均値 (average) μGy/h,
大田 (Ota),2012-11-18,23:01～24:00,0.0548,0.0493,0.0516,
大田 (Ota),2012-11-18,22:01～23:00,0.0559,0.0483,0.0518,
大田 (Ota),2012-11-18,21:01～22:00,0.0547,0.0479,0.0514,
大田 (Ota),2012-11-18,20:01～21:00,0.0550,0.0489,0.0516,
大田 (Ota),2012-11-18,19:01～20:00,0.0561,0.0487,0.0516,
大田 (Ota),2012-11-18,18:01～19:00,0.0553,0.0493,0.0522,
大田 (Ota),2012-11-18,17:01～18:00,0.0551,0.0491,0.0521,
大田 (Ota),2012-11-18,16:01～17:00,0.0549,0.0487,0.0520,
大田 (Ota),2012-11-18,15:01～16:00,0.0559,0.0485,0.0525,
大田 (Ota),2012-11-18,14:01～15:00,0.0553,0.0495,0.0521,
大田 (Ota),2012-11-18,13:01～14:00,0.0553,0.0490,0.0518,
大田 (Ota),2012-11-18,12:01～13:00,0.0550,0.0495,0.0524,
大田 (Ota),2012-11-18,11:01～12:00,0.0548,0.0489,0.0518,
大田 (Ota),2012-11-18,10:01～11:00,0.0556,0.0475,0.0519,
大田 (Ota),2012-11-18,09:01～10:00,0.0553,0.0479,0.0520,
大田 (Ota),2012-11-18,08:01～09:00,0.0546,0.0492,0.0519,
大田 (Ota),2012-11-18,07:01～08:00,0.0544,0.0482,0.0515,
大田 (Ota),2012-11-18,06:01～07:00,0.0547,0.0476,0.0517,
大田 (Ota),2012-11-18,05:01～06:00,0.0541,0.0475,0.0514,
大田 (Ota),2012-11-18,04:01～05:00,0.0546,0.0481,0.0513,
大田 (Ota),2012-11-18,03:01～04:00,0.0557,0.0482,0.0518,
大田 (Ota),2012-11-18,02:01～03:00,0.0541,0.0479,0.0516,
大田 (Ota),2012-11-18,01:01～02:00,0.0542,0.0485,0.0514,
大田 (Ota),2012-11-18,00:01～01:00,0.0555,0.0477,0.0518,
大田 (Ota),2012-11-17,23:01～24:00,0.0553,0.0477,0.0520,
大田 (Ota),2012-11-17,22:01～23:00,0.0590,0.0500,0.0543,
大田 (Ota),2012-11-17,21:01～22:00,0.0718,0.0542,0.0627,
大田 (Ota),2012-11-17,20:01～21:00,0.0807,0.0666,0.0731,
大田 (Ota),2012-11-17,19:01～20:00,0.0783,0.0636,0.0701,
大田 (Ota),2012-11-17,18:01～19:00,0.0710,0.0637,0.0671,
大田 (Ota),2012-11-17,17:01～18:00,0.0699,0.0583,0.0638,
大田 (Ota),2012-11-17,16:01～17:00,0.0635,0.0577,0.0606,
大田 (Ota),2012-11-17,15:01～16:00,0.0659,0.0563,0.0602,
大田 (Ota),2012-11-17,14:01～15:00,0.0618,0.0544,0.0581,
大田 (Ota),2012-11-17,13:01～14:00,0.0589,0.0512,0.0556,
大田 (Ota),2012-11-17,12:01～13:00,0.0600,0.0523,0.0564,
大田 (Ota),2012-11-17,11:01～12:00,0.0622,0.0529,0.0575,
大田 (Ota),2012-11-17,10:01～11:00,0.0595,0.0507,0.0561,
大田 (Ota),2012-11-17,09:01～10:00,0.0598,0.0500,0.0534,
大田 (Ota),2012-11-17,08:01～09:00,0.0563,0.0492,0.0525,
大田 (Ota),2012-11-17,07:01～08:00,0.0547,0.0496,0.0522,
大田 (Ota),2012-11-17,06:01～07:00,0.0543,0.0493,0.0519,
大田 (Ota),2012-11-17,05:01～06:00,0.0553,0.0484,0.0519,
大田 (Ota),2012-11-17,04:01～05:00,0.0556,0.0489,0.0517,
大田 (Ota),2012-11-17,03:01～04:00,0.0552,0.0493,0.0524,
大田 (Ota),2012-11-17,02:01～03:00,0.0564,0.0488,0.0521,
大田 (Ota),2012-11-17,01:01～02:00,0.0558,0.0490,0.0522,
大田 (Ota),2012-11-17,00:01～01:00,0.0555,0.0485,0.0519,
大田 (Ota),2012-11-16,23:01～24:00,0.0551,0.0491,0.0516,
大田 (Ota),2012-11-16,22:01～23:00,0.0560,0.0488,0.0522,
大田 (Ota),2012-11-16,21:01～22:00,0.0547,0.0488,0.0518,
大田 (Ota),2012-11-16,20:01～21:00,0.0551,0.0490,0.0517,
大田 (Ota),2012-11-16,19:01～20:00,0.0546,0.0481,0.0516,
大田 (Ota),2012-11-16,18:01～19:00,0.0551,0.0474,0.0516,
大田 (Ota),2012-11-16,17:01～18:00,0.0549,0.0481,0.0519,
大田 (Ota),2012-11-16,16:01～17:00,0.0548,0.0482,0.0518,
大田 (Ota),2012-11-16,15:01～16:00,0.0554,0.0488,0.0519,
大田 (Ota),2012-11-16,14:01～15:00,0.0559,0.0485,0.0518,
大田 (Ota),2012-11-16,13:01～14:00,0.0557,0.0481,0.0518,
大田 (Ota),2012-11-16,12:01～13:00,0.0569,0.0488,0.0515,
大田 (Ota),2012-11-16,11:01～12:00,0.0552,0.0480,0.0517,
大田 (Ota),2012-11-16,10:01～11:00,0.0545,0.0471,0.0515,
大田 (Ota),2012-11-16,09:01～10:00,0.0559,0.0487,0.0523,
大田 (Ota),2012-11-16,08:01～09:00,0.0554,0.0490,0.0518,
大田 (Ota),2012-11-16,07:01～08:00,0.0549,0.0486,0.0515,
大田 (Ota),2012-11-16,06:01～07:00,0.0546,0.0467,0.0520,
大田 (Ota),2012-11-16,05:01～06:00,0.0548,0.0466,0.0517,
大田 (Ota),2012-11-16,04:01～05:00,0.0553,0.0484,0.0519,
大田 (Ota),2012-11-16,03:01～04:00,0.0552,0.0489,0.0522,
大田 (Ota),2012-11-16,02:01～03:00,0.0552,0.0488,0.0517,
大田 (Ota),2012-11-16,01:01～02:00,0.0561,0.0491,0.0525,
大田 (Ota),2012-11-16,00:01～01:00,0.0555,0.0471,0.0522,
大田 (Ota),2012-11-15,23:01～24:00,0.0548,0.0489,0.0521,
大田 (Ota),2012-11-15,22:01～23:00,0.0550,0.0487,0.0526,
大田 (Ota),2012-11-15,21:01～22:00,0.0567,0.0492,0.0523,
大田 (Ota),2012-11-15,20:01～21:00,0.0551,0.0493,0.0525,
大田 (Ota),2012-11-15,19:01～20:00,0.0558,0.0485,0.0524,
大田 (Ota),2012-11-15,18:01～19:00,0.0566,0.0484,0.0523,
大田 (Ota),2012-11-15,17:01～18:00,0.0556,0.0494,0.0527,
大田 (Ota),2012-11-15,16:01～17:00,0.0593,0.0497,0.0530,
大田 (Ota),2012-11-15,15:01～16:00,0.0574,0.0500,0.0533,
大田 (Ota),2012-11-15,14:01～15:00,0.0574,0.0484,0.0533,
大田 (Ota),2012-11-15,13:01～14:00,0.0570,0.0488,0.0530,
大田 (Ota),2012-11-15,12:01～13:00,0.0574,0.0489,0.0528,
大田 (Ota),2012-11-15,11:01～12:00,0.0566,0.0507,0.0536,
大田 (Ota),2012-11-15,10:01～11:00,0.0569,0.0499,0.0532,
大田 (Ota),2012-11-15,09:01～10:00,0.0574,0.0504,0.0535,
大田 (Ota),2012-11-15,08:01～09:00,0.0584,0.0499,0.0530,
大田 (Ota),2012-11-15,07:01～08:00,0.0566,0.0502,0.0531,
大田 (Ota),2012-11-15,06:01～07:00,0.0566,0.0491,0.0525,
大田 (Ota),2012-11-15,05:01～06:00,0.0562,0.0500,0.0525,
大田 (Ota),2012-11-15,04:01～05:00,0.0558,0.0489,0.0527,
大田 (Ota),2012-11-15,03:01～04:00,0.0556,0.0491,0.0524,
大田 (Ota),2012-11-15,02:01～03:00,0.0554,0.0490,0.0522,
大田 (Ota),2012-11-15,01:01～02:00,0.0567,0.0494,0.0523,
大田 (Ota),2012-11-15,00:01～01:00,0.0558,0.0497,0.0522,
大田 (Ota),2012-11-14,23:01～24:00,0.0563,0.0493,0.0520,
大田 (Ota),2012-11-14,22:01～23:00,0.0572,0.0484,0.0516,
大田 (Ota),2012-11-14,21:01～22:00,0.0565,0.0476,0.0520,
大田 (Ota),2012-11-14,20:01～21:00,0.0561,0.0486,0.0525,
大田 (Ota),2012-11-14,19:01～20:00,0.0557,0.0484,0.0523,
大田 (Ota),2012-11-14,18:01～19:00,0.0560,0.0495,0.0525,
大田 (Ota),2012-11-14,17:01～18:00,0.0559,0.0493,0.0523,
大田 (Ota),2012-11-14,16:01～17:00,0.0559,0.0493,0.0522,
大田 (Ota),2012-11-14,15:01～16:00,0.0550,0.0494,0.0518,
大田 (Ota),2012-11-14,14:01～15:00,0.0561,0.0473,0.0516,
大田 (Ota),2012-11-14,13:01～14:00,0.0552,0.0479,0.0516,
大田 (Ota),2012-11-14,12:01～13:00,0.0556,0.0491,0.0523,
大田 (Ota),2012-11-14,11:01～12:00,0.0553,0.0483,0.0518,
大田 (Ota),2012-11-14,10:01～11:00,0.0554,0.0495,0.0520,
大田 (Ota),2012-11-14,09:01～10:00,0.0553,0.0488,0.0520,
大田 (Ota),2012-11-14,08:01～09:00,0.0557,0.0490,0.0522,
大田 (Ota),2012-11-14,07:01～08:00,0.0545,0.0488,0.0520,
大田 (Ota),2012-11-14,06:01～07:00,0.0558,0.0489,0.0518,
大田 (Ota),2012-11-14,05:01～06:00,0.0552,0.0485,0.0517,
大田 (Ota),2012-11-14,04:01～05:00,0.0552,0.0485,0.0520,
大田 (Ota),2012-11-14,03:01～04:00,0.0552,0.0485,0.0522,
大田 (Ota),2012-11-14,02:01～03:00,0.0551,0.0491,0.0519,
大田 (Ota),2012-11-14,01:01～02:00,0.0566,0.0494,0.0520,
大田 (Ota),2012-11-14,00:01～01:00,0.0555,0.0479,0.0519,
大田 (Ota),2012-11-13,23:01～24:00,0.0562,0.0488,0.0521,
大田 (Ota),2012-11-13,22:01～23:00,0.0565,0.0485,0.0525,
大田 (Ota),2012-11-13,21:01～22:00,0.0551,0.0490,0.0517,
大田 (Ota),2012-11-13,20:01～21:00,0.0549,0.0472,0.0518,
大田 (Ota),2012-11-13,19:01～20:00,0.0551,0.0490,0.0518,
大田 (Ota),2012-11-13,18:01～19:00,0.0555,0.0488,0.0522,
大田 (Ota),2012-11-13,17:01～18:00,0.0565,0.0481,0.0519,
大田 (Ota),2012-11-13,16:01～17:00,0.0546,0.0487,0.0516,
大田 (Ota),2012-11-13,15:01～16:00,0.0556,0.0483,0.0516,
大田 (Ota),2012-11-13,14:01～15:00,0.0542,0.0481,0.0517,
大田 (Ota),2012-11-13,13:01～14:00,0.0551,0.0477,0.0515,
大田 (Ota),2012-11-13,12:01～13:00,0.0563,0.0491,0.0520,
大田 (Ota),2012-11-13,11:01～12:00,0.0569,0.0478,0.0520,
大田 (Ota),2012-11-13,10:01～11:00,0.0566,0.0489,0.0527,
大田 (Ota),2012-11-13,09:01～10:00,0.0562,0.0486,0.0526,
大田 (Ota),2012-11-13,08:01～09:00,0.0563,0.0492,0.0530,
大田 (Ota),2012-11-13,07:01～08:00,0.0565,0.0484,0.0519,
大田 (Ota),2012-11-13,06:01～07:00,0.0552,0.0492,0.0522,
大田 (Ota),2012-11-13,05:01～06:00,0.0555,0.0483,0.0526,
大田 (Ota),2012-11-13,04:01～05:00,0.0561,0.0497,0.0523,
大田 (Ota),2012-11-13,03:01～04:00,0.0562,0.0484,0.0516,
大田 (Ota),2012-11-13,02:01～03:00,0.0556,0.0491,0.0528,
大田 (Ota),2012-11-13,01:01～02:00,0.0569,0.0482,0.0521,
大田 (Ota),2012-11-13,00:01～01:00,0.0559,0.0490,0.0521,
大田 (Ota),2012-11-12,23:01～24:00,0.0555,0.0488,0.0520,
大田 (Ota),2012-11-12,22:01～23:00,0.0554,0.0485,0.0516,
大田 (Ota),2012-11-12,21:01～22:00,0.0539,0.0472,0.0510,
大田 (Ota),2012-11-12,20:01～21:00,0.0551,0.0485,0.0517,
大田 (Ota),2012-11-12,19:01～20:00,0.0554,0.0472,0.0516,
大田 (Ota),2012-11-12,18:01～19:00,0.0544,0.0485,0.0515,
大田 (Ota),2012-11-12,17:01～18:00,0.0557,0.0487,0.0516,
大田 (Ota),2012-11-12,16:01～17:00,0.0542,0.0479,0.0513,
大田 (Ota),2012-11-12,15:01～16:00,0.0562,0.0472,0.0509,
大田 (Ota),2012-11-12,14:01～15:00,0.0529,0.0474,0.0506,
大田 (Ota),2012-11-12,13:01～14:00,0.0544,0.0479,0.0509,
大田 (Ota),2012-11-12,12:01～13:00,0.0553,0.0487,0.0514,
大田 (Ota),2012-11-12,11:01～12:00,0.0555,0.0487,0.0516,
大田 (Ota),2012-11-12,10:01～11:00,0.0556,0.0480,0.0520,
大田 (Ota),2012-11-12,09:01～10:00,0.0558,0.0479,0.0517,
大田 (Ota),2012-11-12,08:01～09:00,0.0550,0.0482,0.0513,
大田 (Ota),2012-11-12,07:01～08:00,0.0544,0.0475,0.0512,
大田 (Ota),2012-11-12,06:01～07:00,0.0564,0.0487,0.0517,
大田 (Ota),2012-11-12,05:01～06:00,0.0566,0.0481,0.0517,
大田 (Ota),2012-11-12,04:01～05:00,0.0567,0.0488,0.0523,
大田 (Ota),2012-11-12,03:01～04:00,0.0590,0.0507,0.0548,
大田 (Ota),2012-11-12,02:01～03:00,0.0637,0.0546,0.0595,
大田 (Ota),2012-11-12,01:01～02:00,0.0646,0.0555,0.0599,
大田 (Ota),2012-11-12,00:01～01:00,0.0610,0.0530,0.0571,
